Location: Bonny Doon Airfield
(37.0704°N, 122.1252°W)
Time: 19:55:12
(UTC-07:00)

BREEZE M DEB (TANK) - Visible Passes

Search period start: 04 July 2015 00:00
Search period end: 14 July 2015 00:00
Orbit: 311 x 13789 km, 49.6° (Epoch: 04 July)

Date Brightness Start Highest point End Pass type
(mag) Time Alt. Az. Time Alt. Az. Time Alt. Az.
04 Jul 7.9 01:44:56 10° NW 03:35:59 48° WSW 04:05:23 10° S visible
04 Jul 8.2 22:40:03 10° WNW 00:45:23 89° SW 01:32:40 10° SE visible
05 Jul 8.1 04:17:18 10° NW 05:26:03 18° W 05:43:08 10° WSW visible
05 Jul 8.8 19:48:49 10° W 21:05:09 72° N 22:49:57 10° ESE visible
06 Jul 7.8 00:54:03 10° NW 02:51:46 56° WSW 03:21:21 18° S visible
06 Jul 8.3 21:52:55 10° WNW 23:53:07 85° NE 00:49:31 10° SE visible
07 Jul 8.1 03:19:07 10° NW 04:43:53 25° W 05:06:59 10° SW visible
07 Jul 9.0 19:04:30 10° WSW 20:05:43 73° N 22:03:56 10° E visible
08 Jul 7.9 00:04:13 10° NW 02:06:26 65° WSW 02:36:42 26° S visible
08 Jul 8.4 21:06:32 10° WNW 22:57:40 80° NNE 00:05:48 10° SE visible
09 Jul 8.0 02:24:21 10° NW 04:01:13 32° W 04:23:36 17° SW visible
09 Jul 9.1 18:20:38 10° WSW 19:09:33 75° NNW 21:16:51 10° E visible
09 Jul 7.9 23:15:20 10° WNW 01:19:39 73° SW 01:52:52 30° SSE visible
10 Jul 8.6 20:20:45 10° W 21:58:54 75° NNE 23:21:40 10° ESE visible
11 Jul 8.0 01:31:43 10° NW 03:17:57 40° WSW 03:40:05 25° SW visible
11 Jul 8.0 22:27:17 10° WNW 00:31:03 81° SW 01:09:32 31° SSE visible
12 Jul 8.6 04:12:23 10° NW 05:07:08 12° W 05:14:03 10° W visible
12 Jul 8.7 19:35:34 10° W 20:58:02 72° N 22:36:45 10° ESE visible
13 Jul 8.0 00:40:36 10° NW 02:33:56 48° WSW 02:56:57 31° SSW visible
